Weather Roundup
Issued by NWS Corpus Christi, TX

Home | Current Version | Previous Version | Text Only | Print | Product List | Glossary On
Versions: 1 2 3 4 5 6 7 8 9 10 11 12 13 14 15 16 17 18 19 20 21 22 23 24 25 26 27 28 29 30 31 32 33 34 35 36 37 38 39 40 41 42 43 44 45 46 47 48 49 50
458
ASUS44 KCRP 191010
HRRCRP

SOUTH TEXAS REGIONAL WEATHER ROUNDUP
NATIONAL WEATHER SERVICE CORPUS CHRISTI TX
500 AM CDT THU APR 19 2018


TXZ229>244-191100-
...CORPUS CHRISTI AREA OBSERVATIONS...

CITY           SKY/WX    TMP DP  RH WIND       PRES   REMARKS
CORPUS CHRISTI CLOUDY    70  69  97 N7        30.13R
NAS CORPUS CHR PTCLDY    72  32  23 N5        30.11R
ROCKPORT       CLOUDY    70  68  93 N7        30.12R
KINGSVILLE ARP CLOUDY    68  68 100 CALM      30.13R VSB 1/2
KINGSVILLE NAS MOCLDY    67  65  93 N6        30.12R
ALICE          CLOUDY    67  64  90 NE7       30.12R
$$

...VICTORIA AREA OBSERVATIONS...

CITY           SKY/WX    TMP DP  RH WIND       PRES   REMARKS
PORT LAVACA    CLOUDY    68  51  54 N10       30.14R
VICTORIA       CLOUDY    67  47  48 N9        30.15R
BEEVILLE       CLOUDY    69  59  70 NE7       30.15R
PLEASANTON     MOCLDY    62  39  41 NE8       30.17S
SAN ANTONIO    MOCLDY    61  35  37 N7        30.20R
$$

...LAREDO AREA OBSERVATIONS...

CITY           SKY/WX    TMP DP  RH WIND       PRES   REMARKS
LAREDO         CLOUDY    71  65  81 E9        30.12R
COTULLA        CLOUDY    70  41  34 E9        30.14R
DEL RIO        CLEAR     62  31  31 NE5       30.18R
MCALLEN        CLOUDY    75  71  87 NE9       30.09S
HEBBRONVILLE   CLOUDY    68  66  93 E6        30.12F
$$

...OTHER TEXAS OBSERVATIONS...

CITY           SKY/WX    TMP DP  RH WIND       PRES   REMARKS
BROWNSVILLE    CLOUDY    71  70  96 N5        30.10R
HOUSTON        MOCLDY    65  44  46 N9        30.16R
COL. STATION   CLEAR     60  37  42 N13       30.20R
AUSTIN         CLEAR     53  39  59 N7        30.20R
WACO           PTCLDY    53  35  50 NE13      30.25R
FORT WORTH     CLEAR     52  33  48 N9        30.26R
WICHITA FALLS  PTCLDY    45  32  60 CALM      30.31R
LUBBOCK        CLOUDY    42  18  37 E5        30.30R
EL PASO        FAIR      61  10  13 E13       30.12S
$$

...MARINE OBSERVATIONS...

STATION/POSITION TIME  SKY/WX   TEMP    WIND        PRES    VSBY  WAVE   SWELL
                                AIR SEA DIR/SP/G                  HT/PER HT/PER
                 (UTC)          (F)     (DEG/KT/KT) (MB)    (MI)  (FT/S) (FT/S)
PORT ARANSAS     1000            71 73  340/  5/  5 1020.0R
BUOY 90 E PORT A 0850            73 73  310/  2/  2 1018.9          4/ 7   3/ 7
BUOY 200 E PT IS 0950            74 75  110/  6/  6 1018.3R         3/ 6   3/ 6
BUOY 15 E GALVES 0850            71 71  290/  4/  6 1019.3          3/ 7   3/ 7
$$




USA.gov is the U.S. government's official web portal to all federal, state and local government web resources and services.